Kansas City International, MO

3:17 AM CDT on July 25, 2017 (GMT -0500)
Kansas City International

Weather History for KMCI - October, 2013

Change the Weather History Date:

Saturday, October 19, 2013

  Actual Average Record
Temperature  
Mean Temperature 48 °F 55 °F  
Max Temperature 62 °F 66 °F 87 °F (1963)
Min Temperature 34 °F 45 °F 21 °F (1972)
Degree Days  
Heating Degree Days 17 10  
Month to date heating degree days 142 146  
Since 1 July heating degree days 161 213  
Cooling Degree Days 0 1  
Month to date cooling degree days 28 24  
Year to date cooling degree days 1345 1356  
Moisture  
Dew Point 35 °F    
Average Humidity 66    
Maximum Humidity 96    
Minimum Humidity 36    
Precipitation  
Precipitation 0.00 in 0.10 in 1.21 in (1983)
Month to date precipitation 2.79 2.08  
Year to date precipitation 30.30 34.10  
Snow  
Snow 0.00 in 0.00 in 0.00 in ()
Month to date snowfall 0.0 0.1  
Since 1 July snowfall 0.0 0.1  
Since 1 September snowfall 0.0 0.1  
Snow Depth 0.00 in    
Sea Level Pressure  
Sea Level Pressure 29.98 in    
Wind  
Wind Speed 10 mph (SW)    
Max Wind Speed 20 mph    
Max Gust Speed 25 mph    
Visibility 9 miles    
Events      
T = Trace of Precipitation, MM = Missing Value Source: NWS Daily Summary

Daily Weather History Graph

Daily Weather History Graph

Search for Another Location

Airport or City:

Trip Planner

Search our weather history database for the weather conditions in past years. The results will help you decide how hot, cold, wet, or windy it might be!

Date:

Astronomy

Oct. 19, 2013 Rise Set
Actual Time 7:33 AM CDT 6:33 PM CDT
Civil Twilight 7:05 AM CDT 7:00 PM CDT
Nautical Twilight 6:34 AM CDT 7:32 PM CDT
Astronomical Twilight 6:03 AM CDT 8:03 PM CDT
Moon 7:02 PM CDT (10/19) 8:11 AM CDT (10/19)
Length of Visible Light 11h 55m
Length of Day
11h 00m
Waxing Gibbous, 99% of the Moon is Illuminated
Oct 19
Waxing Gibbous
Oct 26
Last Quarter
Nov 3
New
Nov 9
First Quarter
Nov 17
Full

Hourly Weather History & Observations

Time (CDT) Temp. Windchill Dew Point Humidity Pressure Visibility Wind Dir Wind Speed Gust Speed Precip Events Conditions
12:53 AM 36.0 °F 29.0 °F 34.0 °F 93% 30.09 in 10.0 mi West 9.2 mph - N/A   Overcast
1:53 AM 36.0 °F 29.6 °F 34.0 °F 93% 30.07 in 10.0 mi WSW 8.1 mph - N/A   Overcast
2:27 AM 35.6 °F 27.5 °F 33.8 °F 93% 30.06 in 9.0 mi West 11.5 mph - N/A   Overcast
2:53 AM 36.0 °F 29.6 °F 33.1 °F 89% 30.07 in 10.0 mi West 8.1 mph - N/A   Overcast
3:53 AM 35.1 °F 28.6 °F 33.1 °F 92% 30.05 in 10.0 mi SW 8.1 mph - N/A   Mostly Cloudy
4:53 AM 35.1 °F 27.9 °F 33.1 °F 92% 30.04 in 4.0 mi SW 9.2 mph - N/A   Overcast
5:53 AM 35.1 °F 27.9 °F 33.1 °F 92% 30.04 in 4.0 mi SW 9.2 mph - N/A   Overcast
6:53 AM 35.1 °F 27.4 °F 33.1 °F 92% 30.04 in 7.0 mi SW 10.4 mph - N/A   Mostly Cloudy
7:53 AM 34.0 °F 26.6 °F 32.0 °F 92% 30.04 in 7.0 mi SW 9.2 mph - N/A   Mostly Cloudy
8:17 AM 33.8 °F 26.4 °F 32.0 °F 93% 30.02 in 8.0 mi SW 9.2 mph - N/A   Scattered Clouds
8:53 AM 36.0 °F 29.0 °F 34.0 °F 93% 30.04 in 10.0 mi SW 9.2 mph - N/A   Partly Cloudy
9:53 AM 39.9 °F 33.4 °F 36.0 °F 86% 30.04 in 10.0 mi SW 10.4 mph - N/A   Partly Cloudy
10:53 AM 45.0 °F 40.1 °F 37.0 °F 74% 30.02 in 10.0 mi SW 9.2 mph - N/A   Clear
11:53 AM 51.1 °F - 37.9 °F 61% 30.00 in 10.0 mi SW 11.5 mph - N/A   Clear
12:53 PM 55.0 °F - 39.0 °F 55% 29.98 in 10.0 mi SW 12.7 mph - N/A   Clear
1:53 PM 57.9 °F - 34.0 °F 41% 29.95 in 10.0 mi West 16.1 mph 20.7 mph N/A   Partly Cloudy
2:53 PM 60.1 °F - 35.1 °F 39% 29.92 in 10.0 mi WSW 16.1 mph 23.0 mph N/A   Partly Cloudy
3:53 PM 61.0 °F - 34.0 °F 36% 29.90 in 10.0 mi WSW 10.4 mph 21.9 mph N/A   Partly Cloudy
4:53 PM 61.0 °F - 33.1 °F 35% 29.89 in 10.0 mi WSW 15.0 mph - N/A   Partly Cloudy
5:53 PM 59.0 °F - 34.0 °F 39% 29.89 in 10.0 mi West 6.9 mph - N/A   Partly Cloudy
6:53 PM 55.0 °F - 34.0 °F 45% 29.90 in 10.0 mi SW 4.6 mph - N/A   Partly Cloudy
7:53 PM 48.0 °F - 35.1 °F 61% 29.91 in 10.0 mi SSW 5.8 mph - N/A   Partly Cloudy
8:53 PM 46.9 °F - 37.0 °F 68% 29.90 in 10.0 mi South 6.9 mph - N/A   Scattered Clouds
9:53 PM 46.0 °F 41.4 °F 37.0 °F 71% 29.90 in 10.0 mi SSW 9.2 mph - N/A   Partly Cloudy
10:53 PM 46.0 °F 41.4 °F 37.0 °F 71% 29.89 in 10.0 mi SSW 9.2 mph - N/A   Partly Cloudy
11:53 PM 46.0 °F 41.0 °F 37.9 °F 73% 29.88 in 10.0 mi South 10.4 mph - N/A   Clear